Time,TemperatureF,DewpointF,PressureIn,WindDirection,WindDirectionDegrees,WindSpeedMPH,WindSpeedGustMPH,Humidity,HourlyPrecipIn,Conditions,Clouds,dailyrainin,SoftwareType,DateUTC
2013-10-14 00:06:00,63.3,63.3,30.20,East,84,0.0,0.0,100,0.00,,,0.00,Wunderground v.1.15,2013-10-14 04:06:00,
2013-10-14 00:15:00,63.3,63.3,30.20,East,82,0.0,1.0,100,0.00,,,0.00,Wunderground v.1.15,2013-10-14 04:15:00,
2013-10-14 00:20:00,63.4,63.4,30.20,NNW,331,0.0,0.0,100,0.00,,,0.01,Wunderground v.1.15,2013-10-14 04:20:00,
2013-10-14 00:25:00,63.3,63.3,30.19,NNW,338,0.0,0.0,100,0.00,,,0.01,Wunderground v.1.15,2013-10-14 04:25:00,
2013-10-14 00:30:00,63.4,63.4,30.19,NE,53,0.0,0.0,100,0.00,,,0.01,Wunderground v.1.15,2013-10-14 04:30:00,
2013-10-14 00:35:00,63.4,63.4,30.19,NNE,27,0.0,0.0,100,0.00,,,0.01,Wunderground v.1.15,2013-10-14 04:35:00,
2013-10-14 00:40:00,63.4,63.4,30.19,West,278,0.0,0.0,100,0.00,,,0.02,Wunderground v.1.15,2013-10-14 04:40:00,
2013-10-14 00:50:00,63.3,63.3,30.19,SSE,167,0.0,0.0,100,0.00,,,0.02,Wunderground v.1.15,2013-10-14 04:50:00,
2013-10-14 01:00:00,63.3,63.3,30.20,SSE,167,0.0,0.0,100,0.00,,,0.02,Wunderground v.1.15,2013-10-14 05:00:00,
2013-10-14 01:10:00,63.3,63.3,30.19,SSW,195,0.0,0.0,100,0.00,,,0.02,Wunderground v.1.15,2013-10-14 05:10:00,
2013-10-14 01:15:00,63.3,63.3,30.19,SW,220,0.0,0.0,100,0.00,,,0.02,Wunderground v.1.15,2013-10-14 05:15:00,
2013-10-14 01:20:00,63.3,63.3,30.19,SW,220,0.0,0.0,100,0.00,,,0.02,Wunderground v.1.15,2013-10-14 05:20:00,
2013-10-14 01:30:00,63.2,63.2,30.19,SW,221,0.0,0.0,100,0.00,,,0.02,Wunderground v.1.15,2013-10-14 05:30:00,
2013-10-14 01:35:00,63.2,63.2,30.19,East,86,0.0,0.0,100,0.00,,,0.02,Wunderground v.1.15,2013-10-14 05:35:00,
2013-10-14 01:40:00,63.1,63.1,30.19,East,86,0.0,0.0,100,0.00,,,0.02,Wunderground v.1.15,2013-10-14 05:40:00,
2013-10-14 01:50:00,63.0,63.0,30.20,East,85,0.0,0.0,100,0.00,,,0.03,Wunderground v.1.15,2013-10-14 05:50:00,
2013-10-14 01:55:00,63.0,63.0,30.20,South,179,0.0,0.0,100,0.06,,,0.04,Wunderground v.1.15,2013-10-14 05:55:00,
2013-10-14 02:00:00,63.0,63.0,30.20,ESE,113,0.0,0.0,100,0.09,,,0.05,Wunderground v.1.15,2013-10-14 06:00:00,
2013-10-14 02:05:00,62.9,62.9,30.20,NNW,343,0.0,0.0,100,0.07,,,0.05,Wunderground v.1.15,2013-10-14 06:05:00,
2013-10-14 02:15:00,62.9,62.9,30.20,NNW,343,0.0,0.0,100,0.06,,,0.06,Wunderground v.1.15,2013-10-14 06:15:00,
2013-10-14 02:20:00,62.8,62.8,30.20,North,5,0.0,0.0,100,0.05,,,0.06,Wunderground v.1.15,2013-10-14 06:20:00,
2013-10-14 02:30:00,62.8,62.8,30.19,North,11,0.0,0.0,100,0.00,,,0.06,Wunderground v.1.15,2013-10-14 06:30:00,
2013-10-14 02:35:00,62.7,62.7,30.19,NW,304,0.0,0.0,100,0.00,,,0.06,Wunderground v.1.15,2013-10-14 06:35:00,
2013-10-14 02:40:00,62.7,62.7,30.19,NW,312,0.0,0.0,100,0.00,,,0.06,Wunderground v.1.15,2013-10-14 06:40:00,
2013-10-14 02:45:00,62.7,62.7,30.19,WNW,287,0.0,0.0,100,0.00,,,0.06,Wunderground v.1.15,2013-10-14 06:45:00,
2013-10-14 02:55:00,62.6,62.6,30.19,NE,49,0.0,0.0,100,0.00,,,0.06,Wunderground v.1.15,2013-10-14 06:55:00,
2013-10-14 03:00:00,62.6,62.6,30.19,North,351,0.0,0.0,100,0.00,,,0.06,Wunderground v.1.15,2013-10-14 07:00:00,
2013-10-14 03:05:00,62.5,62.5,30.19,East,88,0.0,0.0,100,0.00,,,0.06,Wunderground v.1.15,2013-10-14 07:05:00,
2013-10-14 03:15:00,62.5,62.5,30.19,SSE,159,0.0,4.0,100,0.00,,,0.06,Wunderground v.1.15,2013-10-14 07:15:00,
2013-10-14 03:20:00,62.4,62.4,30.19,East,88,0.0,0.0,100,0.00,,,0.06,Wunderground v.1.15,2013-10-14 07:20:00,
2013-10-14 03:25:00,62.4,62.4,30.19,NW,315,0.0,0.0,100,0.00,,,0.06,Wunderground v.1.15,2013-10-14 07:25:00,
2013-10-14 03:35:00,62.3,62.3,30.18,NNW,333,0.0,0.0,100,0.00,,,0.06,Wunderground v.1.15,2013-10-14 07:35:00,
2013-10-14 03:40:00,62.3,62.3,30.19,NNW,332,0.0,0.0,100,0.00,,,0.06,Wunderground v.1.15,2013-10-14 07:40:00,
2013-10-14 03:45:00,62.3,62.3,30.19,WNW,284,0.0,0.0,100,0.00,,,0.06,Wunderground v.1.15,2013-10-14 07:45:00,
2013-10-14 03:50:00,62.2,62.2,30.19,ENE,76,0.0,0.0,100,0.00,,,0.07,Wunderground v.1.15,2013-10-14 07:50:00,
2013-10-14 04:00:00,62.2,62.2,30.19,SSW,199,0.0,2.0,100,0.00,,,0.07,Wunderground v.1.15,2013-10-14 08:00:00,
2013-10-14 04:05:00,62.1,62.1,30.19,West,263,0.0,2.0,100,0.04,,,0.08,Wunderground v.1.15,2013-10-14 08:05:00,
2013-10-14 04:15:00,62.1,62.1,30.19,SSW,209,0.0,0.0,100,0.04,,,0.08,Wunderground v.1.15,2013-10-14 08:15:00,
2013-10-14 04:20:00,62.0,62.0,30.19,ESE,116,0.0,0.0,100,0.04,,,0.08,Wunderground v.1.15,2013-10-14 08:20:00,
2013-10-14 04:25:00,62.0,62.0,30.19,ESE,116,0.0,0.0,100,0.00,,,0.08,Wunderground v.1.15,2013-10-14 08:25:00,
2013-10-14 04:30:00,62.0,62.0,30.19,West,273,0.0,0.0,100,0.00,,,0.08,Wunderground v.1.15,2013-10-14 08:30:00,
2013-10-14 04:40:00,61.9,61.9,30.20,North,5,0.0,0.0,100,0.00,,,0.08,Wunderground v.1.15,2013-10-14 08:40:00,
2013-10-14 04:45:00,61.9,61.9,30.20,West,276,0.0,0.0,100,0.00,,,0.08,Wunderground v.1.15,2013-10-14 08:45:00,
2013-10-14 04:50:00,61.8,61.8,30.20,ENE,76,0.0,0.0,100,0.00,,,0.08,Wunderground v.1.15,2013-10-14 08:50:00,
2013-10-14 04:55:00,61.8,61.8,30.20,NNW,330,0.0,0.0,100,0.00,,,0.08,Wunderground v.1.15,2013-10-14 08:55:00,
2013-10-14 05:00:00,61.8,61.8,30.20,North,5,0.0,0.0,100,0.00,,,0.08,Wunderground v.1.15,2013-10-14 09:00:00,
2013-10-14 05:05:00,61.8,61.8,30.20,NNW,336,0.0,0.0,100,0.00,,,0.08,Wunderground v.1.15,2013-10-14 09:05:00,
2013-10-14 05:15:00,61.7,61.7,30.21,ENE,62,0.0,0.0,100,0.00,,,0.08,Wunderground v.1.15,2013-10-14 09:15:00,
2013-10-14 05:20:00,61.7,61.7,30.21,SSE,150,0.0,1.0,100,0.00,,,0.08,Wunderground v.1.15,2013-10-14 09:20:00,
2013-10-14 05:25:00,61.7,61.7,30.21,SSE,150,0.0,1.0,100,0.00,,,0.08,Wunderground v.1.15,2013-10-14 09:25:00,
2013-10-14 05:30:00,61.7,61.7,30.21,SSE,149,0.0,0.0,100,0.00,,,0.08,Wunderground v.1.15,2013-10-14 09:30:00,
2013-10-14 05:35:00,61.6,61.6,30.21,SW,234,0.0,0.0,100,0.00,,,0.08,Wunderground v.1.15,2013-10-14 09:35:00,
2013-10-14 05:40:00,61.6,61.6,30.21,West,273,0.0,1.0,100,0.00,,,0.08,Wunderground v.1.15,2013-10-14 09:40:00,
2013-10-14 05:50:00,61.6,61.6,30.21,SSE,157,1.0,1.0,100,0.00,,,0.08,Wunderground v.1.15,2013-10-14 09:50:00,
2013-10-14 05:55:00,61.5,61.5,30.21,SSE,157,0.0,1.0,100,0.00,,,0.08,Wunderground v.1.15,2013-10-14 09:55:00,
2013-10-14 06:00:00,61.5,61.5,30.21,North,355,0.0,0.0,100,0.00,,,0.08,Wunderground v.1.15,2013-10-14 10:00:00,
2013-10-14 06:05:00,61.5,61.5,30.21,North,355,0.0,0.0,100,0.00,,,0.09,Wunderground v.1.15,2013-10-14 10:05:00,
2013-10-14 06:15:00,61.4,61.4,30.21,West,280,0.0,1.0,100,0.00,,,0.09,Wunderground v.1.15,2013-10-14 10:15:00,
2013-10-14 06:20:00,61.4,61.4,30.21,East,83,0.0,0.0,100,0.00,,,0.09,Wunderground v.1.15,2013-10-14 10:20:00,
2013-10-14 06:30:00,61.3,61.3,30.21,NNW,342,0.0,6.0,100,0.00,,,0.09,Wunderground v.1.15,2013-10-14 10:30:00,
2013-10-14 06:35:00,61.3,61.3,30.21,North,355,0.0,6.0,100,0.00,,,0.09,Wunderground v.1.15,2013-10-14 10:35:00,
2013-10-14 06:40:00,61.3,61.3,30.21,North,355,0.0,0.0,100,0.00,,,0.09,Wunderground v.1.15,2013-10-14 10:40:00,
2013-10-14 06:50:00,61.2,61.2,30.21,WNW,295,0.0,0.0,100,0.00,,,0.09,Wunderground v.1.15,2013-10-14 10:50:00,
2013-10-14 06:55:00,61.2,61.2,30.21,NNW,327,0.0,4.0,100,0.00,,,0.09,Wunderground v.1.15,2013-10-14 10:55:00,
2013-10-14 07:00:00,61.2,61.2,30.21,NNW,333,0.0,0.0,100,0.00,,,0.10,Wunderground v.1.15,2013-10-14 11:00:00,
2013-10-14 07:05:00,61.1,61.1,30.21,NNW,333,0.0,0.0,100,0.00,,,0.10,Wunderground v.1.15,2013-10-14 11:05:00,
2013-10-14 07:15:00,61.1,61.1,30.21,NNW,344,0.0,1.0,100,0.00,,,0.10,Wunderground v.1.15,2013-10-14 11:15:00,
2013-10-14 07:20:00,61.0,61.0,30.21,NE,49,0.0,0.0,100,0.00,,,0.10,Wunderground v.1.15,2013-10-14 11:20:00,
2013-10-14 07:25:00,61.0,61.0,30.21,WNW,292,0.0,5.0,100,0.00,,,0.10,Wunderground v.1.15,2013-10-14 11:25:00,
2013-10-14 07:35:00,60.9,60.9,30.21,NW,319,1.0,1.0,100,0.00,,,0.10,Wunderground v.1.15,2013-10-14 11:35:00,
2013-10-14 07:40:00,60.9,60.9,30.21,NNW,333,0.0,1.0,100,0.00,,,0.10,Wunderground v.1.15,2013-10-14 11:40:00,
2013-10-14 07:45:00,60.9,60.9,30.22,WSW,246,0.0,1.0,100,0.00,,,0.10,Wunderground v.1.15,2013-10-14 11:45:00,
2013-10-14 07:50:00,60.9,60.9,30.22,NNW,332,0.0,0.0,100,0.00,,,0.11,Wunderground v.1.15,2013-10-14 11:50:00,
2013-10-14 08:00:00,60.9,60.9,30.22,SE,127,0.0,0.0,100,0.00,,,0.11,Wunderground v.1.15,2013-10-14 12:00:00,
2013-10-14 08:05:00,60.9,60.9,30.22,NW,319,0.0,1.0,100,0.05,,,0.12,Wunderground v.1.15,2013-10-14 12:05:00,
2013-10-14 08:15:00,60.8,60.8,30.22,WSW,250,1.0,1.0,100,0.04,,,0.12,Wunderground v.1.15,2013-10-14 12:15:00,
2013-10-14 08:20:00,60.9,60.9,30.23,NNE,24,0.0,0.0,100,0.00,,,0.12,Wunderground v.1.15,2013-10-14 12:20:00,
2013-10-14 08:25:00,60.9,60.9,30.23,WNW,288,0.0,0.0,100,0.00,,,0.12,Wunderground v.1.15,2013-10-14 12:25:00,
2013-10-14 08:30:00,60.9,60.9,30.23,NE,44,0.0,0.0,100,0.00,,,0.12,Wunderground v.1.15,2013-10-14 12:30:00,
2013-10-14 08:40:00,60.9,60.9,30.23,NNW,333,0.0,0.0,100,0.00,,,0.12,Wunderground v.1.15,2013-10-14 12:40:00,
2013-10-14 08:45:00,60.9,60.9,30.23,WNW,298,0.0,0.0,100,0.00,,,0.12,Wunderground v.1.15,2013-10-14 12:45:00,
2013-10-14 08:50:00,60.9,60.9,30.24,NE,48,0.0,0.0,100,0.00,,,0.12,Wunderground v.1.15,2013-10-14 12:50:00,
2013-10-14 08:55:00,60.9,60.9,30.24,NNE,31,0.0,0.0,100,0.00,,,0.12,Wunderground v.1.15,2013-10-14 12:55:00,
2013-10-14 09:00:00,61.0,61.0,30.24,NW,323,0.0,0.0,100,0.00,,,0.12,Wunderground v.1.15,2013-10-14 13:00:00,
2013-10-14 09:20:00,61.0,61.0,30.24,East,85,1.0,1.0,100,0.00,,,0.12,Wunderground v.1.15,2013-10-14 13:20:00,
2013-10-14 09:30:00,61.0,61.0,30.24,WNW,297,1.0,1.0,100,0.00,,,0.12,Wunderground v.1.15,2013-10-14 13:30:00,
2013-10-14 09:40:00,61.1,61.1,30.24,WNW,296,0.0,0.0,100,0.00,,,0.12,Wunderground v.1.15,2013-10-14 13:40:00,
2013-10-14 09:45:00,61.1,61.1,30.24,WSW,240,0.0,0.0,100,0.00,,,0.12,Wunderground v.1.15,2013-10-14 13:45:00,
2013-10-14 09:50:00,61.2,61.2,30.25,East,95,0.0,0.0,100,0.00,,,0.12,Wunderground v.1.15,2013-10-14 13:50:00,
2013-10-14 09:55:00,61.1,61.1,30.25,South,169,0.0,0.0,100,0.00,,,0.12,Wunderground v.1.15,2013-10-14 13:55:00,
2013-10-14 10:05:00,61.2,61.2,30.24,NW,309,0.0,1.0,100,0.00,,,0.12,Wunderground v.1.15,2013-10-14 14:05:00,
2013-10-14 10:15:00,61.3,61.3,30.24,NW,317,0.0,0.0,100,0.00,,,0.12,Wunderground v.1.15,2013-10-14 14:15:00,
2013-10-14 10:20:00,61.3,61.3,30.25,NE,34,0.0,1.0,100,0.00,,,0.12,Wunderground v.1.15,2013-10-14 14:20:00,
2013-10-14 10:25:00,61.3,61.3,30.25,WSW,248,1.0,1.0,100,0.00,,,0.12,Wunderground v.1.15,2013-10-14 14:25:00,
2013-10-14 10:30:00,61.3,61.3,30.25,NW,325,0.0,0.0,100,0.00,,,0.12,Wunderground v.1.15,2013-10-14 14:30:00,
2013-10-14 10:35:00,61.4,61.4,30.25,NNE,19,0.0,0.0,100,0.00,,,0.12,Wunderground v.1.15,2013-10-14 14:35:00,
2013-10-14 10:45:00,61.5,61.5,30.24,WNW,293,0.0,0.0,100,0.00,,,0.12,Wunderground v.1.15,2013-10-14 14:45:00,
2013-10-14 10:50:00,61.6,61.6,30.24,NW,305,0.0,0.0,100,0.00,,,0.12,Wunderground v.1.15,2013-10-14 14:50:00,
2013-10-14 10:55:00,61.7,61.7,30.24,ENE,76,0.0,0.0,100,0.00,,,0.12,Wunderground v.1.15,2013-10-14 14:55:00,
2013-10-14 11:05:00,61.8,61.8,30.23,WNW,298,0.0,2.0,100,0.00,,,0.12,Wunderground v.1.15,2013-10-14 15:05:00,
2013-10-14 11:15:00,62.0,62.0,30.23,NW,325,1.0,1.0,100,0.00,,,0.12,Wunderground v.1.15,2013-10-14 15:15:00,
2013-10-14 11:20:00,62.1,62.1,30.23,WNW,283,1.0,2.0,100,0.00,,,0.12,Wunderground v.1.15,2013-10-14 15:20:00,
2013-10-14 11:25:00,62.3,62.3,30.23,NW,314,1.0,2.0,100,0.00,,,0.12,Wunderground v.1.15,2013-10-14 15:25:00,
2013-10-14 11:35:00,62.6,62.6,30.23,NNE,18,1.0,1.0,100,0.00,,,0.12,Wunderground v.1.15,2013-10-14 15:35:00,
2013-10-14 11:40:00,62.7,62.7,30.23,NNW,348,0.0,0.0,100,0.00,,,0.12,Wunderground v.1.15,2013-10-14 15:40:00,
2013-10-14 11:45:00,62.7,62.4,30.23,SSW,205,0.0,0.0,99,0.00,,,0.12,Wunderground v.1.15,2013-10-14 15:45:00,
2013-10-14 11:50:00,62.9,62.6,30.23,NW,311,1.0,1.0,99,0.00,,,0.12,Wunderground v.1.15,2013-10-14 15:50:00,
2013-10-14 11:55:00,63.0,62.7,30.22,NNW,329,1.0,1.0,99,0.00,,,0.12,Wunderground v.1.15,2013-10-14 15:55:00,
2013-10-14 12:05:00,63.2,62.9,30.22,West,277,1.0,2.0,99,0.00,,,0.12,Wunderground v.1.15,2013-10-14 16:05:00,
2013-10-14 12:15:00,63.3,63.0,30.22,South,180,0.0,1.0,99,0.00,,,0.12,Wunderground v.1.15,2013-10-14 16:15:00,
2013-10-14 12:20:00,63.4,63.1,30.22,West,268,0.0,1.0,99,0.00,,,0.12,Wunderground v.1.15,2013-10-14 16:20:00,
2013-10-14 12:25:00,63.6,63.3,30.22,NNW,342,0.0,1.0,99,0.00,,,0.12,Wunderground v.1.15,2013-10-14 16:25:00,
2013-10-14 12:30:00,63.6,63.0,30.22,NW,321,0.0,0.0,98,0.00,,,0.12,Wunderground v.1.15,2013-10-14 16:30:00,
2013-10-14 12:35:00,63.7,63.1,30.22,NNW,343,1.0,1.0,98,0.00,,,0.12,Wunderground v.1.15,2013-10-14 16:35:00,
2013-10-14 12:45:00,63.9,63.0,30.22,NNE,22,0.0,1.0,97,0.00,,,0.12,Wunderground v.1.15,2013-10-14 16:45:00,
2013-10-14 12:50:00,64.0,63.1,30.22,NE,38,1.0,1.0,97,0.00,,,0.12,Wunderground v.1.15,2013-10-14 16:50:00,
2013-10-14 12:55:00,64.0,63.1,30.22,NE,46,1.0,1.0,97,0.00,,,0.12,Wunderground v.1.15,2013-10-14 16:55:00,
2013-10-14 13:00:00,64.1,63.2,30.22,North,5,0.0,0.0,97,0.00,,,0.12,Wunderground v.1.15,2013-10-14 17:00:00,
2013-10-14 13:05:00,64.1,62.9,30.22,West,277,1.0,1.0,96,0.00,,,0.12,Wunderground v.1.15,2013-10-14 17:05:00,
2013-10-14 13:15:00,64.2,63.0,30.22,South,183,0.0,0.0,96,0.00,,,0.12,Wunderground v.1.15,2013-10-14 17:15:00,
2013-10-14 13:25:00,64.1,62.6,30.21,NE,45,1.0,1.0,95,0.00,,,0.12,Wunderground v.1.15,2013-10-14 17:25:00,
2013-10-14 13:30:00,64.1,62.6,30.21,North,5,0.0,0.0,95,0.00,,,0.12,Wunderground v.1.15,2013-10-14 17:30:00,
2013-10-14 13:35:00,64.1,62.6,30.21,ESE,119,1.0,1.0,95,0.00,,,0.12,Wunderground v.1.15,2013-10-14 17:35:00,
2013-10-14 13:40:00,64.1,62.6,30.20,ESE,119,1.0,1.0,95,0.00,,,0.12,Wunderground v.1.15,2013-10-14 17:40:00,
2013-10-14 13:45:00,64.1,62.6,30.20,WNW,287,0.0,1.0,95,0.00,,,0.12,Wunderground v.1.15,2013-10-14 17:45:00,
2013-10-14 13:55:00,64.3,62.5,30.20,ENE,57,1.0,1.0,94,0.00,,,0.12,Wunderground v.1.15,2013-10-14 17:55:00,
2013-10-14 14:00:00,64.3,62.5,30.20,WNW,288,0.0,1.0,94,0.00,,,0.12,Wunderground v.1.15,2013-10-14 18:00:00,
2013-10-14 14:05:00,64.3,62.2,30.20,NW,323,1.0,2.0,93,0.00,,,0.12,Wunderground v.1.15,2013-10-14 18:05:00,
2013-10-14 14:15:00,64.3,62.2,30.20,WSW,255,0.0,1.0,93,0.00,,,0.12,Wunderground v.1.15,2013-10-14 18:15:00,
2013-10-14 14:20:00,64.2,62.1,30.20,NW,325,0.0,0.0,93,0.00,,,0.12,Wunderground v.1.15,2013-10-14 18:20:00,
2013-10-14 14:25:00,64.1,62.3,30.20,West,281,0.0,0.0,94,0.00,,,0.12,Wunderground v.1.15,2013-10-14 18:25:00,
2013-10-14 14:35:00,63.9,62.1,30.20,WNW,286,0.0,2.0,94,0.00,,,0.12,Wunderground v.1.15,2013-10-14 18:35:00,
2013-10-14 14:40:00,63.9,62.1,30.20,South,176,0.0,1.0,94,0.00,,,0.12,Wunderground v.1.15,2013-10-14 18:40:00,
2013-10-14 14:45:00,63.8,62.0,30.19,South,180,0.0,1.0,94,0.00,,,0.12,Wunderground v.1.15,2013-10-14 18:45:00,
2013-10-14 14:50:00,63.7,61.9,30.19,SW,217,0.0,0.0,94,0.00,,,0.12,Wunderground v.1.15,2013-10-14 18:50:00,
2013-10-14 14:55:00,63.6,61.8,30.19,NW,311,0.0,0.0,94,0.00,,,0.12,Wunderground v.1.15,2013-10-14 18:55:00,
2013-10-14 15:05:00,63.6,61.8,30.19,NW,309,0.0,0.0,94,0.00,,,0.12,Wunderground v.1.15,2013-10-14 19:05:00,
2013-10-14 15:15:00,63.6,61.8,30.19,WNW,294,0.0,0.0,94,0.00,,,0.12,Wunderground v.1.15,2013-10-14 19:15:00,
2013-10-14 15:20:00,63.6,61.8,30.19,WNW,290,1.0,1.0,94,0.00,,,0.12,Wunderground v.1.15,2013-10-14 19:20:00,
2013-10-14 15:25:00,63.5,61.7,30.19,ENE,65,1.0,2.0,94,0.00,,,0.12,Wunderground v.1.15,2013-10-14 19:25:00,
2013-10-14 15:30:00,63.5,61.7,30.19,WNW,294,1.0,1.0,94,0.00,,,0.12,Wunderground v.1.15,2013-10-14 19:30:00,
2013-10-14 15:40:00,63.5,61.4,30.19,West,262,0.0,1.0,93,0.00,,,0.12,Wunderground v.1.15,2013-10-14 19:40:00,
2013-10-14 15:45:00,63.6,61.5,30.19,South,184,0.0,1.0,93,0.00,,,0.12,Wunderground v.1.15,2013-10-14 19:45:00,
2013-10-14 15:50:00,63.7,61.6,30.19,South,184,0.0,0.0,93,0.00,,,0.12,Wunderground v.1.15,2013-10-14 19:50:00,
2013-10-14 15:55:00,63.8,61.7,30.18,East,80,0.0,0.0,93,0.00,,,0.12,Wunderground v.1.15,2013-10-14 19:55:00,
2013-10-14 16:00:00,63.9,61.5,30.18,North,5,0.0,0.0,92,0.00,,,0.12,Wunderground v.1.15,2013-10-14 20:00:00,
2013-10-14 16:05:00,63.9,61.5,30.18,West,277,0.0,0.0,92,0.00,,,0.12,Wunderground v.1.15,2013-10-14 20:05:00,
2013-10-14 16:15:00,63.8,61.1,30.18,West,278,1.0,1.0,91,0.00,,,0.12,Wunderground v.1.15,2013-10-14 20:15:00,
2013-10-14 16:20:00,63.7,61.3,30.18,ENE,60,0.0,3.0,92,0.00,,,0.12,Wunderground v.1.15,2013-10-14 20:20:00,
2013-10-14 16:25:00,63.6,60.9,30.18,North,5,0.0,3.0,91,0.00,,,0.12,Wunderground v.1.15,2013-10-14 20:25:00,
2013-10-14 16:30:00,63.5,61.1,30.19,North,11,0.0,0.0,92,0.00,,,0.12,Wunderground v.1.15,2013-10-14 20:30:00,
2013-10-14 16:35:00,63.4,60.7,30.19,WSW,248,0.0,0.0,91,0.00,,,0.12,Wunderground v.1.15,2013-10-14 20:35:00,
2013-10-14 16:40:00,63.3,60.6,30.19,SSW,204,1.0,3.0,91,0.00,,,0.12,Wunderground v.1.15,2013-10-14 20:40:00,
2013-10-14 16:50:00,63.4,60.7,30.19,WSW,252,0.0,0.0,91,0.00,,,0.12,Wunderground v.1.15,2013-10-14 20:50:00,
2013-10-14 16:55:00,63.4,60.7,30.19,WNW,283,0.0,2.0,91,0.00,,,0.12,Wunderground v.1.15,2013-10-14 20:55:00,
2013-10-14 17:00:00,63.5,60.8,30.19,WNW,284,0.0,0.0,91,0.00,,,0.12,Wunderground v.1.15,2013-10-14 21:00:00,
2013-10-14 17:05:00,63.6,60.9,30.19,WNW,294,0.0,0.0,91,0.00,,,0.12,Wunderground v.1.15,2013-10-14 21:05:00,
2013-10-14 17:15:00,63.7,61.0,30.19,ENE,68,1.0,2.0,91,0.00,,,0.12,Wunderground v.1.15,2013-10-14 21:15:00,
2013-10-14 17:20:00,63.7,61.0,30.20,ENE,60,0.0,0.0,91,0.00,,,0.12,Wunderground v.1.15,2013-10-14 21:20:00,
2013-10-14 17:30:00,63.6,60.9,30.20,North,11,0.0,0.0,91,0.00,,,0.12,Wunderground v.1.15,2013-10-14 21:30:00,
2013-10-14 17:35:00,63.6,60.6,30.19,West,281,1.0,1.0,90,0.00,,,0.12,Wunderground v.1.15,2013-10-14 21:35:00,
2013-10-14 17:40:00,63.6,60.6,30.20,West,277,1.0,1.0,90,0.00,,,0.12,Wunderground v.1.15,2013-10-14 21:40:00,
2013-10-14 17:45:00,63.5,60.5,30.20,West,277,0.0,2.0,90,0.00,,,0.12,Wunderground v.1.15,2013-10-14 21:45:00,
2013-10-14 17:55:00,63.4,60.7,30.20,South,170,0.0,0.0,91,0.00,,,0.12,Wunderground v.1.15,2013-10-14 21:55:00,
2013-10-14 18:00:00,63.3,60.6,30.20,North,350,0.0,0.0,91,0.00,,,0.12,Wunderground v.1.15,2013-10-14 22:00:00,
2013-10-14 18:05:00,63.1,60.4,30.20,North,9,0.0,0.0,91,0.00,,,0.12,Wunderground v.1.15,2013-10-14 22:05:00,
2013-10-14 18:15:00,62.9,60.2,30.20,NNW,342,0.0,2.0,91,0.00,,,0.12,Wunderground v.1.15,2013-10-14 22:15:00,
2013-10-14 18:20:00,62.8,60.1,30.20,NNW,342,0.0,0.0,91,0.00,,,0.12,Wunderground v.1.15,2013-10-14 22:20:00,
2013-10-14 18:25:00,62.7,60.3,30.20,WNW,294,0.0,0.0,92,0.00,,,0.12,Wunderground v.1.15,2013-10-14 22:25:00,
2013-10-14 18:35:00,62.5,60.1,30.20,NNW,347,0.0,0.0,92,0.00,,,0.12,Wunderground v.1.15,2013-10-14 22:35:00,
2013-10-14 18:40:00,62.3,59.9,30.20,NNW,342,0.0,0.0,92,0.00,,,0.12,Wunderground v.1.15,2013-10-14 22:40:00,
2013-10-14 18:45:00,62.2,60.2,30.20,North,360,0.0,0.0,93,0.00,,,0.12,Wunderground v.1.15,2013-10-14 22:45:00,
2013-10-14 18:55:00,62.0,60.0,30.20,North,360,0.0,0.0,93,0.00,,,0.12,Wunderground v.1.15,2013-10-14 22:55:00,
2013-10-14 19:00:00,62.0,60.0,30.20,North,5,0.0,0.0,93,0.00,,,0.12,Wunderground v.1.15,2013-10-14 23:00:00,
2013-10-14 19:05:00,61.9,60.2,30.20,NNE,28,0.0,0.0,94,0.00,,,0.12,Wunderground v.1.15,2013-10-14 23:05:00,
2013-10-14 19:15:00,61.7,60.0,30.20,NNE,17,0.0,0.0,94,0.00,,,0.12,Wunderground v.1.15,2013-10-14 23:15:00,
2013-10-14 19:20:00,61.7,60.0,30.20,NNE,18,0.0,0.0,94,0.00,,,0.12,Wunderground v.1.15,2013-10-14 23:20:00,
2013-10-14 19:25:00,61.6,59.9,30.20,NNE,18,0.0,0.0,94,0.00,,,0.12,Wunderground v.1.15,2013-10-14 23:25:00,
2013-10-14 19:35:00,61.5,59.8,30.20,NNE,17,0.0,0.0,94,0.00,,,0.12,Wunderground v.1.15,2013-10-14 23:35:00,
2013-10-14 19:40:00,61.5,60.1,30.20,NNE,17,0.0,0.0,95,0.00,,,0.12,Wunderground v.1.15,2013-10-14 23:40:00,
2013-10-14 19:45:00,61.4,60.0,30.20,NNE,17,0.0,0.0,95,0.00,,,0.12,Wunderground v.1.15,2013-10-14 23:45:00,
2013-10-14 19:50:00,61.3,59.9,30.20,NNE,17,0.0,0.0,95,0.00,,,0.12,Wunderground v.1.15,2013-10-14 23:50:00,
2013-10-14 20:00:00,61.2,59.8,30.20,NNE,17,0.0,0.0,95,0.00,,,0.12,Wunderground v.1.15,2013-10-15 00:00:00,
2013-10-14 20:05:00,61.1,59.7,30.20,NNE,17,0.0,0.0,95,0.00,,,0.12,Wunderground v.1.15,2013-10-15 00:05:00,
2013-10-14 20:15:00,60.8,59.4,30.20,NNE,17,0.0,0.0,95,0.00,,,0.12,Wunderground v.1.15,2013-10-15 00:15:00,
2013-10-14 20:20:00,60.6,59.2,30.20,NNE,17,0.0,0.0,95,0.00,,,0.12,Wunderground v.1.15,2013-10-15 00:20:00,
2013-10-14 20:25:00,60.4,59.0,30.21,NNE,17,0.0,0.0,95,0.00,,,0.12,Wunderground v.1.15,2013-10-15 00:25:00,
2013-10-14 20:30:00,60.1,58.7,30.21,NNE,17,0.0,0.0,95,0.00,,,0.12,Wunderground v.1.15,2013-10-15 00:30:00,
2013-10-14 20:40:00,59.6,58.2,30.21,NNE,17,0.0,0.0,95,0.00,,,0.12,Wunderground v.1.15,2013-10-15 00:40:00,
2013-10-14 20:45:00,59.4,58.3,30.21,NNE,17,0.0,0.0,96,0.00,,,0.12,Wunderground v.1.15,2013-10-15 00:45:00,
2013-10-14 20:50:00,59.2,58.1,30.21,NNE,17,0.0,0.0,96,0.00,,,0.12,Wunderground v.1.15,2013-10-15 00:50:00,
2013-10-14 20:55:00,59.0,57.9,30.21,NNE,17,0.0,0.0,96,0.00,,,0.12,Wunderground v.1.15,2013-10-15 00:55:00,
2013-10-14 21:05:00,58.9,57.8,30.21,NNE,17,0.0,0.0,96,0.00,,,0.12,Wunderground v.1.15,2013-10-15 01:05:00,
2013-10-14 21:15:00,58.5,57.7,30.21,NNE,17,0.0,0.0,97,0.00,,,0.12,Wunderground v.1.15,2013-10-15 01:15:00,
2013-10-14 21:20:00,58.5,57.7,30.21,NNE,17,0.0,0.0,97,0.00,,,0.12,Wunderground v.1.15,2013-10-15 01:20:00,
2013-10-14 21:25:00,58.4,57.6,30.21,NNE,17,0.0,0.0,97,0.00,,,0.12,Wunderground v.1.15,2013-10-15 01:25:00,
2013-10-14 21:30:00,58.4,57.6,30.21,NNE,17,0.0,0.0,97,0.00,,,0.12,Wunderground v.1.15,2013-10-15 01:30:00,
2013-10-14 21:35:00,58.3,57.5,30.21,NNE,17,0.0,0.0,97,0.00,,,0.12,Wunderground v.1.15,2013-10-15 01:35:00,
2013-10-14 21:45:00,58.2,57.4,30.21,NNE,17,0.0,0.0,97,0.00,,,0.12,Wunderground v.1.15,2013-10-15 01:45:00,
2013-10-14 21:50:00,58.1,57.5,30.21,NNE,17,0.0,0.0,98,0.00,,,0.12,Wunderground v.1.15,2013-10-15 01:50:00,
2013-10-14 21:55:00,58.0,57.4,30.21,NNE,17,0.0,0.0,98,0.00,,,0.12,Wunderground v.1.15,2013-10-15 01:55:00,
2013-10-14 22:00:00,57.9,57.3,30.21,NNE,17,0.0,0.0,98,0.00,,,0.12,Wunderground v.1.15,2013-10-15 02:00:00,
2013-10-14 22:05:00,57.8,57.2,30.21,NNE,17,0.0,0.0,98,0.00,,,0.12,Wunderground v.1.15,2013-10-15 02:05:00,
2013-10-14 22:15:00,57.5,56.9,30.21,NNE,17,0.0,0.0,98,0.00,,,0.12,Wunderground v.1.15,2013-10-15 02:15:00,
2013-10-14 22:25:00,57.4,56.8,30.21,NNE,17,0.0,0.0,98,0.00,,,0.12,Wunderground v.1.15,2013-10-15 02:25:00,
2013-10-14 22:30:00,57.4,56.8,30.21,NNE,17,0.0,0.0,98,0.00,,,0.12,Wunderground v.1.15,2013-10-15 02:30:00,
2013-10-14 22:35:00,57.3,56.7,30.21,NNE,17,0.0,0.0,98,0.00,,,0.12,Wunderground v.1.15,2013-10-15 02:35:00,
2013-10-14 22:40:00,57.2,56.6,30.21,NNE,17,0.0,0.0,98,0.00,,,0.12,Wunderground v.1.15,2013-10-15 02:40:00,
2013-10-14 22:50:00,57.0,56.4,30.21,NNE,17,0.0,0.0,98,0.00,,,0.12,Wunderground v.1.15,2013-10-15 02:50:00,
2013-10-14 22:55:00,56.8,56.2,30.21,NNE,17,0.0,0.0,98,0.00,,,0.12,Wunderground v.1.15,2013-10-15 02:55:00,
2013-10-14 23:00:00,56.7,56.1,30.21,NNE,17,0.0,0.0,98,0.00,,,0.12,Wunderground v.1.15,2013-10-15 03:00:00,
2013-10-14 23:05:00,56.5,55.9,30.21,NNE,17,0.0,0.0,98,0.00,,,0.12,Wunderground v.1.15,2013-10-15 03:05:00,
2013-10-14 23:15:00,56.4,55.8,30.22,NNE,17,0.0,0.0,98,0.00,,,0.12,Wunderground v.1.15,2013-10-15 03:15:00,
2013-10-14 23:20:00,56.3,55.7,30.21,NNE,17,0.0,0.0,98,0.00,,,0.12,Wunderground v.1.15,2013-10-15 03:20:00,
2013-10-14 23:30:00,56.2,55.6,30.21,NNE,17,0.0,0.0,98,0.00,,,0.12,Wunderground v.1.15,2013-10-15 03:30:00,
2013-10-14 23:35:00,56.0,55.4,30.21,NNE,17,0.0,0.0,98,0.00,,,0.12,Wunderground v.1.15,2013-10-15 03:35:00,
2013-10-14 23:45:00,56.1,55.8,30.21,NNE,17,0.0,0.0,99,0.00,,,0.12,Wunderground v.1.15,2013-10-15 03:45:00,
2013-10-14 23:50:00,56.1,55.8,30.21,NNE,17,0.0,0.0,99,0.00,,,0.12,Wunderground v.1.15,2013-10-15 03:50:00,
2013-10-14 23:55:00,56.1,55.8,30.20,NNE,17,0.0,0.0,99,0.00,,,0.12,Wunderground v.1.15,2013-10-15 03:55:00,